Main page
METAR-TAF:

METAR-TAF

Airports :

Castellón de la Plana, Spain

Castellón–Costa Azahar Airport

latitude: 40-12-35N, longitude: 0-04-11E, elevation: 360 m

Current weather observation

The report was made 14 minutes ago, at 07:00 UTC
Wind 4 kt from the South/Southeast, varying between East/Southeast and South
Temperature 7°C
Humidity 57%
Pressure 1022 hPa
Visibility 10 km or more

METAR: LECH 180700Z AUTO 15004KT 110V170 9999 NCD 07/M01 Q1022

Time: 08:14 (07:14 UTC)


TAF: missing

Weather observations and forecasts of more than 4000 airports (METAR and TAF reports).

The available stations are represented by yellow and red dots on the map.

Hover mouse over dot to see the name of the station.

Then click to see weather observations and forecasts.

To change the map : click on the green buttons with a black cross to zoom in, on the green button with a dash to zoom out, or on the green arrows for adjacent maps.


METAR-TAF: